Time,TemperatureF,DewpointF,PressureIn,WindDirection,WindDirectionDegrees,WindSpeedMPH,WindSpeedGustMPH,Humidity,HourlyPrecipIn,Conditions,Clouds,dailyrainin,SolarRadiationWatts/m^2,SoftwareType,DateUTC
2013-05-12 00:21:00,45.0,27.0,-100.00,NNE,14,5.0,8.0,49,0.00,,,0.00,0.000000,,2013-05-12 06:21:00,
2013-05-12 00:32:00,45.0,27.0,-100.00,NNE,14,5.0,8.0,49,0.00,,,0.00,0.000000,,2013-05-12 06:32:00,
2013-05-12 00:42:00,45.0,27.0,-100.00,NNE,14,5.0,8.0,49,0.00,,,0.00,0.000000,,2013-05-12 06:42:00,
2013-05-12 00:51:00,45.0,27.0,-100.00,NNE,14,5.0,8.0,49,0.00,,,0.00,0.000000,,2013-05-12 06:51:00,
2013-05-12 01:21:00,45.0,29.0,-100.00,NE,55,2.0,7.0,53,0.00,,,0.00,0.000000,,2013-05-12 07:21:00,
2013-05-12 01:32:00,45.0,29.0,-100.00,NE,55,2.0,7.0,53,0.00,,,0.00,0.000000,,2013-05-12 07:32:00,
2013-05-12 01:42:00,45.0,29.0,-100.00,NE,55,2.0,7.0,53,0.00,,,0.00,0.000000,,2013-05-12 07:42:00,
2013-05-12 01:52:00,45.0,29.0,-100.00,NE,55,2.0,7.0,53,0.00,,,0.00,0.000000,,2013-05-12 07:52:00,
2013-05-12 02:21:00,44.0,29.0,-100.00,NNE,15,5.0,9.0,55,0.00,,,0.00,0.000000,,2013-05-12 08:21:00,
2013-05-12 02:32:00,44.0,29.0,-100.00,NNE,15,5.0,9.0,55,0.00,,,0.00,0.000000,,2013-05-12 08:32:00,
2013-05-12 02:41:00,44.0,29.0,-100.00,NNE,15,5.0,9.0,55,0.00,,,0.00,0.000000,,2013-05-12 08:41:00,
2013-05-12 02:52:00,44.0,29.0,-100.00,NNE,15,5.0,9.0,55,0.00,,,0.00,0.000000,,2013-05-12 08:52:00,
2013-05-12 03:21:00,43.0,29.0,-100.00,NE,52,1.0,8.0,57,0.00,,,0.00,0.000000,,2013-05-12 09:21:00,
2013-05-12 03:32:00,43.0,29.0,-100.00,NE,52,1.0,8.0,57,0.00,,,0.00,0.000000,,2013-05-12 09:32:00,
2013-05-12 03:42:00,43.0,29.0,-100.00,NE,52,1.0,8.0,57,0.00,,,0.00,0.000000,,2013-05-12 09:42:00,
2013-05-12 03:52:00,43.0,29.0,-100.00,NE,52,1.0,8.0,57,0.00,,,0.00,0.000000,,2013-05-12 09:52:00,
2013-05-12 04:22:00,43.0,29.0,-100.00,NNE,22,1.0,9.0,57,0.00,,,0.00,0.000000,,2013-05-12 10:22:00,
2013-05-12 04:33:00,43.0,29.0,-100.00,NNE,22,1.0,9.0,57,0.00,,,0.00,0.000000,,2013-05-12 10:33:00,
2013-05-12 04:42:00,43.0,29.0,-100.00,NNE,22,1.0,9.0,57,0.00,,,0.00,0.000000,,2013-05-12 10:42:00,
2013-05-12 04:52:00,43.0,29.0,-100.00,NNE,22,1.0,9.0,57,0.00,,,0.00,0.000000,,2013-05-12 10:52:00,
2013-05-12 05:21:00,41.0,29.0,-100.00,North,357,5.0,7.0,61,0.00,,,0.00,0.000000,,2013-05-12 11:21:00,
2013-05-12 05:32:00,41.0,29.0,-100.00,North,357,5.0,7.0,61,0.00,,,0.00,0.000000,,2013-05-12 11:32:00,
2013-05-12 05:42:00,41.0,29.0,-100.00,North,357,5.0,7.0,61,0.00,,,0.00,0.000000,,2013-05-12 11:42:00,
2013-05-12 05:51:00,41.0,29.0,-100.00,North,357,5.0,7.0,61,0.00,,,0.00,0.000000,,2013-05-12 11:51:00,
2013-05-12 06:21:00,40.0,28.0,-100.00,NNE,18,3.0,7.0,63,0.00,,,-99.99,0.000000,,2013-05-12 12:21:00,
2013-05-12 06:32:00,40.0,28.0,-100.00,NNE,18,3.0,7.0,63,0.00,,,-99.99,0.000000,,2013-05-12 12:32:00,
2013-05-12 06:41:00,40.0,28.0,-100.00,NNE,18,3.0,7.0,63,0.00,,,-99.99,0.000000,,2013-05-12 12:41:00,
2013-05-12 06:51:00,40.0,28.0,-100.00,NNE,18,3.0,7.0,63,0.00,,,-99.99,0.000000,,2013-05-12 12:51:00,
2013-05-12 07:21:00,41.0,30.0,-100.00,NE,56,1.0,6.0,64,0.00,,,0.00,18.000000,,2013-05-12 13:21:00,
2013-05-12 07:31:00,41.0,30.0,-100.00,NE,56,1.0,6.0,64,0.00,,,0.00,18.000000,,2013-05-12 13:31:00,
2013-05-12 07:41:00,41.0,30.0,-100.00,NE,56,1.0,6.0,64,0.00,,,0.00,18.000000,,2013-05-12 13:41:00,
2013-05-12 07:52:00,41.0,30.0,-100.00,NE,56,1.0,6.0,64,0.00,,,0.00,18.000000,,2013-05-12 13:52:00,
2013-05-12 08:21:00,47.0,33.0,-100.00,NNW,328,1.0,4.0,57,0.00,,,0.00,143.000000,,2013-05-12 14:21:00,
2013-05-12 08:31:00,47.0,33.0,-100.00,NNW,328,1.0,4.0,57,0.00,,,0.00,143.000000,,2013-05-12 14:31:00,
2013-05-12 08:42:00,47.0,33.0,-100.00,NNW,328,1.0,4.0,57,0.00,,,0.00,143.000000,,2013-05-12 14:42:00,
2013-05-12 08:51:00,47.0,33.0,-100.00,NNW,328,1.0,4.0,57,0.00,,,0.00,143.000000,,2013-05-12 14:51:00,
2013-05-12 09:21:00,52.0,32.0,-100.00,West,266,2.0,6.0,47,0.00,,,0.00,444.000000,,2013-05-12 15:21:00,
2013-05-12 09:33:00,52.0,32.0,-100.00,West,266,2.0,6.0,47,0.00,,,0.00,444.000000,,2013-05-12 15:33:00,
2013-05-12 09:42:00,52.0,32.0,-100.00,West,266,2.0,6.0,47,0.00,,,0.00,444.000000,,2013-05-12 15:42:00,
2013-05-12 09:52:00,52.0,32.0,-100.00,West,266,2.0,6.0,47,0.00,,,0.00,444.000000,,2013-05-12 15:52:00,
2013-05-12 10:23:00,58.0,32.0,-100.00,SSE,156,5.0,9.0,37,0.00,,,0.00,624.000000,,2013-05-12 16:23:00,
2013-05-12 10:32:00,58.0,32.0,-100.00,SSE,156,5.0,9.0,37,0.00,,,0.00,624.000000,,2013-05-12 16:32:00,
2013-05-12 10:42:00,58.0,32.0,-100.00,SSE,156,5.0,9.0,37,0.00,,,0.00,624.000000,,2013-05-12 16:42:00,
2013-05-12 10:52:00,58.0,32.0,-100.00,SSE,156,5.0,9.0,37,0.00,,,0.00,624.000000,,2013-05-12 16:52:00,
2013-05-12 11:22:00,61.0,30.0,-100.00,South,171,5.0,9.0,31,0.00,,,0.00,802.000000,,2013-05-12 17:22:00,
2013-05-12 11:32:00,61.0,30.0,-100.00,South,171,5.0,9.0,31,0.00,,,0.00,802.000000,,2013-05-12 17:32:00,
2013-05-12 11:42:00,61.0,30.0,-100.00,South,171,5.0,9.0,31,0.00,,,0.00,802.000000,,2013-05-12 17:42:00,
2013-05-12 11:52:00,61.0,30.0,-100.00,South,171,5.0,9.0,31,0.00,,,0.00,802.000000,,2013-05-12 17:52:00,
2013-05-12 12:22:00,66.0,30.0,-100.00,South,185,4.0,11.0,26,0.00,,,0.00,786.000000,,2013-05-12 18:22:00,
2013-05-12 12:31:00,66.0,30.0,-100.00,South,185,4.0,11.0,26,0.00,,,0.00,786.000000,,2013-05-12 18:31:00,
2013-05-12 12:41:00,66.0,30.0,-100.00,South,185,4.0,11.0,26,0.00,,,0.00,786.000000,,2013-05-12 18:41:00,
2013-05-12 12:51:00,66.0,30.0,-100.00,South,185,4.0,11.0,26,0.00,,,0.00,786.000000,,2013-05-12 18:51:00,
2013-05-12 13:21:00,68.0,31.0,-100.00,SW,228,7.0,15.0,25,0.00,,,0.00,667.000000,,2013-05-12 19:21:00,
2013-05-12 13:32:00,68.0,31.0,-100.00,SW,228,7.0,15.0,25,0.00,,,0.00,667.000000,,2013-05-12 19:32:00,
2013-05-12 13:42:00,68.0,31.0,-100.00,SW,228,7.0,15.0,25,0.00,,,0.00,667.000000,,2013-05-12 19:42:00,
2013-05-12 13:52:00,68.0,31.0,-100.00,SW,228,7.0,15.0,25,0.00,,,0.00,667.000000,,2013-05-12 19:52:00,
2013-05-12 14:21:00,70.0,32.0,-100.00,WSW,254,7.0,17.0,24,0.00,,,0.00,967.000000,,2013-05-12 20:21:00,
2013-05-12 14:32:00,70.0,32.0,-100.00,WSW,254,7.0,17.0,24,0.00,,,0.00,967.000000,,2013-05-12 20:32:00,
2013-05-12 14:42:00,70.0,32.0,-100.00,WSW,254,7.0,17.0,24,0.00,,,0.00,967.000000,,2013-05-12 20:42:00,
2013-05-12 14:51:00,70.0,32.0,-100.00,WSW,254,7.0,17.0,24,0.00,,,0.00,967.000000,,2013-05-12 20:51:00,
2013-05-12 15:21:00,70.0,28.0,-100.00,West,280,9.0,18.0,21,0.00,,,0.00,933.000000,,2013-05-12 21:21:00,
2013-05-12 15:33:00,70.0,28.0,-100.00,West,280,9.0,18.0,21,0.00,,,0.00,933.000000,,2013-05-12 21:33:00,
2013-05-12 15:42:00,70.0,28.0,-100.00,West,280,9.0,18.0,21,0.00,,,0.00,933.000000,,2013-05-12 21:42:00,
2013-05-12 15:52:00,70.0,28.0,-100.00,West,280,9.0,18.0,21,0.00,,,0.00,933.000000,,2013-05-12 21:52:00,
2013-05-12 16:23:00,69.0,29.0,-100.00,SSE,161,7.0,13.0,22,0.00,,,0.00,448.000000,,2013-05-12 22:23:00,
2013-05-12 16:32:00,69.0,29.0,-100.00,SSE,161,7.0,13.0,22,0.00,,,0.00,448.000000,,2013-05-12 22:32:00,
2013-05-12 16:42:00,69.0,29.0,-100.00,SSE,161,7.0,13.0,22,0.00,,,0.00,448.000000,,2013-05-12 22:42:00,
2013-05-12 16:52:00,69.0,29.0,-100.00,SSE,161,7.0,13.0,22,0.00,,,0.00,448.000000,,2013-05-12 22:52:00,
2013-05-12 17:22:00,68.0,28.0,-100.00,SSE,166,3.0,10.0,22,0.00,,,0.00,296.000000,,2013-05-12 23:22:00,
2013-05-12 17:32:00,68.0,28.0,-100.00,SSE,166,3.0,10.0,22,0.00,,,0.00,296.000000,,2013-05-12 23:32:00,
2013-05-12 17:42:00,68.0,28.0,-100.00,SSE,166,3.0,10.0,22,0.00,,,0.00,296.000000,,2013-05-12 23:42:00,
2013-05-12 17:51:00,68.0,28.0,-100.00,SSE,166,3.0,10.0,22,0.00,,,0.00,296.000000,,2013-05-12 23:51:00,
2013-05-12 18:21:00,71.0,28.0,-100.00,West,260,7.0,12.0,20,0.00,,,0.00,372.000000,,2013-05-13 00:21:00,
2013-05-12 18:32:00,71.0,28.0,-100.00,West,260,7.0,12.0,20,0.00,,,0.00,372.000000,,2013-05-13 00:32:00,
2013-05-12 18:41:00,71.0,28.0,-100.00,West,260,7.0,12.0,20,0.00,,,0.00,372.000000,,2013-05-13 00:41:00,
2013-05-12 18:51:00,71.0,28.0,-100.00,West,260,7.0,12.0,20,0.00,,,0.00,372.000000,,2013-05-13 00:51:00,
2013-05-12 19:22:00,65.0,30.0,-100.00,SE,129,4.0,14.0,27,0.00,,,0.00,185.000000,,2013-05-13 01:22:00,
2013-05-12 19:31:00,65.0,30.0,-100.00,SE,129,4.0,14.0,27,0.00,,,0.00,185.000000,,2013-05-13 01:31:00,
2013-05-12 19:41:00,65.0,30.0,-100.00,SE,129,4.0,14.0,27,0.00,,,0.00,185.000000,,2013-05-13 01:41:00,
2013-05-12 19:52:00,65.0,30.0,-100.00,SE,129,4.0,14.0,27,0.00,,,0.00,185.000000,,2013-05-13 01:52:00,
2013-05-12 20:21:00,62.0,30.0,-100.00,NE,54,3.0,7.0,30,0.00,,,0.00,50.000000,,2013-05-13 02:21:00,
2013-05-12 20:31:00,62.0,30.0,-100.00,NE,54,3.0,7.0,30,0.00,,,0.00,50.000000,,2013-05-13 02:31:00,
2013-05-12 20:41:00,62.0,30.0,-100.00,NE,54,3.0,7.0,30,0.00,,,0.00,50.000000,,2013-05-13 02:41:00,
2013-05-12 20:51:00,62.0,30.0,-100.00,NE,54,3.0,7.0,30,0.00,,,0.00,50.000000,,2013-05-13 02:51:00,
2013-05-12 21:21:00,58.0,31.0,-100.00,NE,39,4.0,7.0,35,0.00,,,0.00,1.000000,,2013-05-13 03:21:00,
2013-05-12 21:32:00,58.0,31.0,-100.00,NE,39,4.0,7.0,35,0.00,,,0.00,1.000000,,2013-05-13 03:32:00,
2013-05-12 21:42:00,58.0,31.0,-100.00,NE,39,4.0,7.0,35,0.00,,,0.00,1.000000,,2013-05-13 03:42:00,
2013-05-12 21:52:00,58.0,31.0,-100.00,NE,39,4.0,7.0,35,0.00,,,0.00,1.000000,,2013-05-13 03:52:00,
2013-05-12 22:23:00,56.0,29.0,-100.00,NNE,26,4.0,8.0,36,0.00,,,0.00,0.000000,,2013-05-13 04:23:00,
2013-05-12 22:32:00,56.0,29.0,-100.00,NNE,26,4.0,8.0,36,0.00,,,0.00,0.000000,,2013-05-13 04:32:00,
2013-05-12 22:41:00,56.0,29.0,-100.00,NNE,26,4.0,8.0,36,0.00,,,0.00,0.000000,,2013-05-13 04:41:00,
2013-05-12 22:52:00,56.0,29.0,-100.00,NNE,26,4.0,8.0,36,0.00,,,0.00,0.000000,,2013-05-13 04:52:00,
2013-05-12 23:21:00,55.0,30.0,-100.00,NNE,28,4.0,7.0,38,0.00,,,0.00,0.000000,,2013-05-13 05:21:00,
2013-05-12 23:32:00,55.0,30.0,-100.00,NNE,28,4.0,7.0,38,0.00,,,0.00,0.000000,,2013-05-13 05:32:00,
2013-05-12 23:42:00,55.0,30.0,-100.00,NNE,28,4.0,7.0,38,0.00,,,0.00,0.000000,,2013-05-13 05:42:00,
2013-05-12 23:51:00,55.0,30.0,-100.00,NNE,28,4.0,7.0,38,0.00,,,0.00,0.000000,,2013-05-13 05:51:00,